Theta_e
332 332 334 340 341 343 343 344 343 343 343 343 343 343 343 343 343 342 341 340 338 338 337 336 335 334 334 334 332 332 332 331 330 330 329 329 329 329 329 329 329 329 329 329 330 330 330 330 330 330 330 329 329 329 329 328 327 326 326 325 324 322 322 321 320 319 317 318 318 317 318 320 319 322 328 332 334 331 328 329 328 325 325 330 334
329 331 334 338 342 342 343 343 343 343 342 343 342 342 342 342 341 340 339 338 337 337 335 335 334 334 334 332 332 331 330 329 329 329 329 329 329 329 329 329 328 329 328 328 329 329 329 329 329 329 329 329 328 327 328 327 326 325 324 323 323 321 320 320 318 317 316 315 315 314 314 316 316 319 325 330 332 329 327 328 327 324 321 333 332
330 332 336 339 342 342 342 344 343 343 342 343 342 343 342 341 340 338 338 337 336 335 335 334 334 334 333 332 330 329 329 329 329 329 328 328 329 329 329 329 328 328 328 328 328 328 329 329 329 329 328 328 327 327 326 326 324 324 323 322 322 320 319 318 317 316 314 313 313 311 310 312 314 316 323 328 330 328 327 328 325 326 323 329 330
332 336 338 340 341 342 341 343 343 342 342 342 342 341 340 340 338 337 336 336 335 335 334 334 334 333 332 330 329 329 329 329 328 328 328 328 329 329 329 328 328 328 328 327 327 327 328 328 328 328 327 328 326 326 325 324 323 323 322 322 322 319 318 317 316 315 313 311 311 309 303 298 302 311 321 326 328 327 325 327 325 325 327 327 328
336 337 338 338 339 341 342 341 342 342 342 340 341 341 339 338 337 336 336 335 334 334 334 334 332 331 330 329 329 329 329 329 329 328 328 328 327 327 327 327 327 327 327 327 327 327 326 326 326 327 326 326 325 325 324 323 322 322 321 321 320 318 316 315 314 313 312 310 309 304 296 297 299 306 317 325 327 325 325 326 325 325 326 327 327
336 338 338 337 337 340 342 341 342 342 341 340 340 340 338 337 336 335 335 334 333 333 333 332 331 330 329 329 329 329 329 329 327 327 326 326 326 326 327 326 326 326 326 326 326 326 325 325 325 325 325 324 324 323 322 322 322 322 320 320 319 317 315 313 313 311 310 308 305 299 295 297 299 300 315 323 326 324 326 326 325 326 326 326 326
336 336 337 337 337 339 342 341 341 341 341 340 339 338 337 336 335 334 333 332 332 331 331 330 329 329 329 329 328 328 328 327 326 326 326 326 326 326 326 326 326 325 325 325 325 325 325 324 324 323 324 324 322 322 322 321 321 320 320 319 318 317 315 313 311 310 309 300 294 294 295 298 300 298 312 321 325 325 324 326 325 326 326 326 327
336 336 336 337 337 338 341 341 340 340 338 338 336 336 335 334 333 332 332 332 331 329 328 328 328 328 328 328 328 327 326 325 325 325 325 325 325 325 325 325 324 324 324 325 325 325 324 323 323 322 323 322 322 321 321 320 320 320 319 319 318 317 316 313 309 308 307 295 294 294 295 299 300 297 309 321 325 325 324 325 326 326 325 326 325
335 336 337 337 337 339 339 339 338 338 337 336 335 334 333 333 332 331 330 329 328 327 327 326 326 326 326 325 324 324 323 324 324 324 324 324 325 324 324 324 323 323 323 324 324 324 323 323 323 322 322 321 321 320 320 320 319 319 318 317 317 316 315 313 308 307 298 294 293 294 295 301 299 296 306 322 325 325 322 322 325 325 325 325 325
334 335 336 336 337 338 337 337 336 336 336 334 333 332 332 331 330 329 328 327 325 325 325 326 325 325 324 324 323 322 322 322 323 322 323 323 324 324 324 323 323 322 322 322 323 323 323 322 321 321 321 320 320 319 319 318 318 318 317 317 316 315 314 311 306 302 294 293 293 295 298 308 298 296 305 322 323 324 322 320 323 323 324 326 325
333 335 336 336 335 337 337 336 336 335 334 332 331 331 330 330 329 328 326 325 325 324 324 324 324 323 323 322 321 321 321 321 320 321 322 322 323 323 323 323 322 321 321 321 322 321 321 322 322 321 320 319 318 318 318 317 317 317 317 316 314 313 312 308 303 293 294 293 293 296 298 305 296 294 313 322 322 322 320 319 322 324 326 326 325
328 330 332 333 335 335 334 333 333 333 332 331 330 330 329 328 327 326 325 324 324 324 324 323 323 322 321 320 319 320 320 320 319 319 320 321 322 322 321 321 321 321 321 320 320 320 320 320 321 320 319 318 317 317 317 317 317 316 316 315 314 312 310 307 297 294 292 292 293 299 295 294 294 298 319 320 320 322 321 320 321 325 325 324 325
324 325 328 329 330 333 333 332 331 330 330 329 329 329 328 327 326 325 324 324 323 323 323 323 322 321 320 319 319 319 318 318 318 318 319 319 320 321 321 320 321 320 319 319 319 319 319 319 319 319 318 317 316 316 316 315 315 315 315 314 313 311 309 306 296 293 293 292 295 295 294 294 295 309 319 319 320 321 320 321 321 323 325 324 324
320 320 323 326 328 331 331 331 329 329 328 328 328 328 327 326 325 324 324 323 323 323 322 322 321 320 318 318 318 318 317 316 316 316 317 317 318 319 320 320 319 318 318 318 318 318 318 318 318 317 317 316 315 315 315 315 315 314 313 313 311 309 308 301 300 292 293 293 296 296 294 297 295 315 318 318 319 320 319 321 320 321 323 323 322
317 318 318 319 321 325 329 329 328 328 327 327 327 327 326 325 324 323 322 322 322 321 320 320 319 318 317 317 316 316 316 316 315 314 314 314 316 316 318 318 318 317 317 317 317 317 317 317 317 316 316 315 314 314 313 314 313 313 312 311 309 308 307 296 294 292 292 295 295 296 293 293 307 317 317 317 318 319 319 320 319 319 320 321 321
316 314 314 314 315 316 319 326 326 326 326 326 325 325 324 324 323 322 321 319 319 318 318 317 317 316 316 316 315 314 314 314 313 312 313 313 314 315 316 317 317 316 316 316 315 316 316 316 315 315 315 313 313 313 312 313 312 312 311 309 308 306 306 302 292 292 291 292 294 295 294 294 310 316 316 317 317 318 318 318 319 318 318 320 320
314 314 311 310 310 310 311 314 320 322 322 321 321 321 320 320 320 320 320 318 317 316 316 316 315 315 315 314 314 313 312 312 312 311 312 312 312 312 314 315 315 314 314 315 315 315 315 315 314 314 313 313 312 311 311 311 311 310 309 307 306 305 304 301 292 291 291 295 295 294 293 295 308 315 315 316 316 318 318 318 318 318 317 319 319
311 311 309 309 306 306 307 307 307 308 310 316 319 318 317 317 317 317 316 316 316 316 315 315 315 313 312 312 312 313 312 311 311 311 311 311 311 311 311 313 314 313 313 313 313 314 314 313 313 312 312 311 310 310 309 309 308 308 307 306 304 303 301 300 291 291 291 295 291 295 293 302 314 315 315 315 316 316 317 317 317 316 316 318 318
307 307 308 307 302 302 303 304 306 305 306 307 309 313 316 316 316 315 314 313 313 313 313 313 313 312 311 311 311 311 311 311 310 310 310 311 311 310 309 310 312 312 311 312 312 312 312 312 312 311 310 309 308 308 307 307 307 307 305 304 303 301 299 295 291 290 292 290 292 292 291 310 312 315 315 314 316 315 316 316 316 316 316 316 317
305 304 304 302 304 301 301 302 302 302 302 303 305 307 315 315 315 314 314 313 313 312 311 310 310 310 310 309 308 303 305 305 309 305 309 309 310 308 308 308 309 310 310 310 310 311 310 310 310 309 309 308 306 305 305 305 304 304 304 302 301 298 291 290 290 290 290 290 293 290 300 310 312 315 314 314 315 315 316 316 315 314 315 315 315
301 304 304 303 302 301 300 299 299 299 299 300 300 302 307 308 310 312 312 311 311 309 308 307 305 306 304 305 303 297 296 298 300 301 305 304 308 308 307 307 308 308 308 308 308 309 309 309 309 308 307 306 303 301 301 302 302 302 301 300 298 291 290 290 290 291 290 289 294 289 305 309 311 315 314 314 315 314 314 314 313 313 314 314 314
298 299 302 303 302 300 298 298 298 298 298 299 299 300 301 303 299 301 302 303 305 305 302 299 302 295 302 298 296 298 295 297 300 304 299 302 303 306 306 305 305 306 306 306 306 307 307 308 307 306 305 303 300 291 293 297 298 299 298 297 291 289 289 289 289 289 290 287 292 293 305 307 310 314 314 314 313 313 313 312 312 311 312 313 313
298 300 301 301 301 299 298 297 296 297 297 297 299 300 296 296 296 296 299 303 302 299 295 297 293 294 295 295 297 294 294 296 300 303 302 301 301 304 303 303 303 304 304 304 304 305 305 305 305 304 302 300 291 290 290 290 290 296 295 290 289 289 289 289 288 288 287 289 288 298 305 308 310 312 314 314 313 312 311 312 312 312 313 314 313
297 299 299 301 299 297 297 297 296 296 296 296 296 295 294 295 295 295 295 295 294 296 293 293 294 294 294 294 294 295 293 293 301 301 299 294 294 299 300 299 299 300 302 296 299 300 301 300 301 300 296 294 290 290 290 289 289 288 288 288 288 288 288 288 287 287 286 288 288 300 304 307 310 311 313 313 312 311 310 310 311 311 311 312 311
299 301 300 299 298 298 298 297 297 297 297 297 294 293 294 293 294 294 294 294 293 293 293 293 293 294 294 294 293 294 293 293 293 293 292 292 292 292 292 291 291 290 298 290 291 292 292 290 290 293 289 290 289 289 289 289 289 288 287 287 287 287 287 287 287 286 285 286 289 300 304 307 310 311 312 312 312 310 311 311 311 311 312 312 311
301 298 298 299 299 298 298 296 296 295 295 295 297 299 294 293 293 295 293 293 294 293 293 293 293 294 294 294 294 292 293 293 292 292 292 292 292 291 291 290 290 290 293 290 290 291 290 290 290 290 289 289 289 288 289 290 287 287 286 286 286 286 286 286 286 285 285 285 288 298 303 305 307 310 310 311 312 311 311 311 311 311 311 310 310
299 297 297 298 297 296 296 295 295 295 295 295 295 294 293 293 293 295 292 292 293 293 292 293 294 293 294 295 293 292 292 292 292 292 291 291 291 291 290 290 289 290 291 290 290 290 289 289 289 289 288 288 288 288 288 287 286 285 285 285 286 285 285 285 285 284 284 285 289 296 302 304 305 307 308 310 311 310 310 310 309 310 309 309 309
298 296 296 298 299 295 295 295 294 293 292 292 293 294 294 296 300 299 296 301 295 293 293 293 294 294 295 295 294 292 292 292 292 291 290 290 290 290 290 290 290 290 290 290 289 289 289 289 289 288 288 288 287 287 287 286 285 284 284 284 284 284 284 284 284 284 284 284 286 292 301 302 303 305 306 308 309 310 310 309 309 308 309 308 308
296 296 295 296 295 296 294 294 295 292 292 292 292 292 292 293 293 294 295 301 292 292 293 292 292 294 294 295 295 292 292 292 291 290 289 290 289 289 289 289 289 289 289 289 289 288 288 288 288 287 287 287 286 286 287 285 284 284 283 283 283 283 283 283 283 283 284 284 284 289 298 300 301 302 303 304 306 308 308 308 308 308 308 308 307
296 295 295 295 294 293 293 293 292 292 293 292 292 291 292 291 293 293 295 296 292 294 292 291 291 291 293 295 296 292 292 291 291 289 289 289 288 289 289 289 288 289 289 288 289 288 287 287 287 287 286 286 285 285 285 283 283 283 283 283 283 283 283 282 283 283 283 283 283 285 294 296 297 298 299 301 302 303 305 306 307 307 307 307 307
296 294 293 292 297 292 292 293 293 298 293 292 292 292 294 291 295 291 292 293 295 294 292 291 291 292 293 293 294 296 292 291 290 289 288 288 288 288 288 288 288 288 288 288 288 288 287 286 286 286 285 285 284 283 284 283 282 282 283 282 282 282 282 282 283 282 283 283 283 283 287 292 294 295 296 298 300 301 302 303 304 305 306 306 306
294 293 292 293 293 292 293 294 295 296 296 294 298 293 291 293 293 290 292 293 293 290 291 293 294 292 293 293 293 293 295 290 290 290 288 287 287 287 287 288 287 288 288 287 287 287 286 286 285 285 285 284 282 283 283 282 282 281 282 281 282 282 282 282 282 282 282 282 282 282 283 286 290 292 293 295 296 298 299 301 302 303 304 304 305
293 293 292 295 292 292 293 295 295 296 293 294 293 292 292 293 291 291 295 294 292 291 291 292 292 293 293 293 293 293 293 290 289 289 291 286 287 287 287 288 287 287 287 287 286 286 284 284 284 284 283 282 282 282 283 282 281 281 281 281 281 281 281 282 281 281 282 282 281 282 282 284 283 287 289 291 292 294 296 298 299 300 301 302 303
292 292 293 292 293 295 296 294 293 292 294 292 293 291 292 292 293 292 295 291 290 291 293 292 294 293 293 292 292 293 291 290 289 288 287 286 286 286 286 286 287 287 286 286 285 284 283 283 283 282 284 282 281 281 281 280 281 281 280 281 280 281 281 281 281 280 281 281 281 281 281 281 282 282 282 287 289 291 293 295 296 297 298 299 300
295 292 292 291 295 294 295 295 298 295 297 296 294 292 293 295 290 290 292 291 290 289 289 291 291 292 292 292 292 292 290 290 289 287 287 286 286 285 286 286 287 287 285 285 284 283 282 282 282 281 281 281 281 282 281 280 280 280 280 281 280 281 281 281 281 280 281 280 281 281 281 281 281 281 281 279 284 287 290 293 295 296 296 297 298
293 292 292 293 292 293 296 295 295 293 292 294 291 292 291 291 294 298 291 290 289 290 290 291 291 291 291 291 291 292 289 289 288 287 287 286 285 285 285 286 286 286 285 284 284 282 281 281 281 281 279 279 280 279 280 279 279 279 280 280 279 283 280 280 280 280 280 280 280 280 280 280 281 281 282 279 279 282 288 290 292 294 293 294 295
293 292 293 292 292 294 295 292 291 292 293 292 291 290 290 291 291 291 291 290 289 289 290 290 291 291 290 290 290 291 288 288 288 288 287 286 285 284 284 285 286 284 283 282 282 283 281 280 280 282 280 279 279 279 279 279 279 279 279 279 279 281 279 280 281 280 281 279 280 280 280 279 281 282 279 279 279 279 283 287 289 290 290 291 292
294 293 293 292 292 293 292 291 291 292 292 292 291 291 291 290 289 291 293 289 289 290 290 290 291 290 290 290 290 290 289 288 288 288 287 288 285 284 284 284 285 283 282 281 281 281 280 280 279 280 280 279 279 278 278 278 279 279 279 279 279 278 279 279 281 283 279 279 280 279 279 279 279 278 279 278 278 279 279 282 286 286 287 289 292
295 293 292 292 292 292 294 296 292 292 292 292 293 290 290 290 288 289 290 289 289 289 289 290 290 290 290 290 290 290 290 287 287 288 287 285 284 284 283 283 284 282 281 280 280 281 280 279 279 279 280 279 279 278 278 278 278 278 278 279 278 278 279 280 280 279 279 278 281 282 279 279 278 278 278 278 278 278 278 278 278 278 279 287 289
295 293 293 291 291 292 292 294 292 291 290 290 290 289 288 290 288 288 289 290 290 292 290 289 290 290 291 289 289 288 288 289 286 286 286 285 283 283 283 283 283 281 280 280 279 279 279 278 278 279 278 279 279 279 278 278 277 277 279 278 277 277 279 280 278 278 279 278 278 280 278 279 278 278 278 278 278 278 278 278 280 278 279 281 286
294 293 292 291 291 292 293 291 292 291 291 290 290 289 291 288 286 287 287 288 290 290 290 290 290 289 288 288 287 287 287 287 287 285 283 284 283 282 282 282 282 282 280 279 279 279 280 279 278 279 278 277 277 278 278 278 276 276 276 276 276 278 281 279 277 278 278 277 277 277 278 278 277 277 277 278 277 277 277 277 277 277 278 278 279
294 293 292 292 292 292 292 292 292 291 290 290 293 289 288 288 287 287 286 288 288 288 289 290 289 289 288 287 286 286 286 286 287 284 283 282 281 281 281 281 281 281 281 280 280 281 278 278 278 277 278 277 276 278 278 277 275 274 273 273 275 276 278 277 277 278 277 277 277 277 278 278 277 277 277 277 277 277 277 277 277 277 277 277 278
295 294 292 292 292 292 291 291 291 291 290 291 289 289 288 289 286 286 287 287 288 290 289 290 289 287 286 286 285 284 285 285 284 285 282 282 281 281 281 281 280 281 279 278 278 277 278 277 277 276 275 277 277 278 277 277 274 275 275 274 272 272 277 276 276 277 277 276 277 277 278 277 277 277 277 276 276 276 277 277 277 277 277 277 277
294 293 292 293 293 294 292 291 292 291 290 293 295 291 291 290 289 288 289 289 289 290 289 288 287 286 285 285 284 283 283 283 283 283 282 281 280 280 281 281 280 280 278 277 277 277 277 277 277 277 276 275 275 275 278 277 276 275 272 272 271 272 270 272 273 275 275 276 277 276 276 277 276 276 277 275 276 276 276 277 277 277 277 277 277
294 294 293 294 294 294 294 292 292 291 290 295 292 292 291 289 289 290 291 290 289 288 288 287 287 287 285 283 283 283 283 283 283 283 284 280 280 280 280 280 280 280 279 277 277 277 277 276 277 276 275 275 274 274 276 277 276 278 274 273 272 272 271 272 273 273 274 275 275 275 278 276 275 276 275 275 275 276 276 276 276 276 276 277 277
295 295 294 294 294 294 293 291 290 290 290 293 291 291 291 290 290 289 288 286 286 285 285 284 284 283 282 283 282 282 282 282 281 282 282 282 280 280 279 280 280 280 280 277 277 276 276 276 277 275 275 276 274 274 274 277 277 277 276 276 274 271 270 272 272 270 275 276 275 276 276 274 275 275 275 275 275 276 277 276 276 276 276 276 277
296 295 294 293 293 293 293 291 290 290 291 291 292 292 287 288 289 288 287 287 285 284 283 284 285 284 283 282 281 281 281 281 281 280 281 282 280 279 279 279 279 279 280 277 276 276 276 276 278 276 275 278 275 274 274 274 275 275 276 275 276 276 275 272 270 271 269 273 274 274 274 274 275 275 275 275 275 275 276 277 276 276 276 276 276
296 295 294 293 293 293 291 291 292 292 290 291 289 289 288 288 288 288 289 285 285 284 284 285 285 285 283 282 281 280 281 281 280 280 280 281 281 279 279 278 278 279 280 277 276 276 276 277 278 276 276 277 275 275 274 274 273 273 276 275 275 275 275 274 274 271 270 269 271 274 275 274 275 275 275 275 275 275 275 275 275 276 276 276 276
296 295 295 294 293 292 293 292 292 292 290 291 290 290 292 289 289 288 287 286 286 286 286 286 284 284 282 281 280 280 280 280 279 279 279 280 282 280 278 278 278 279 280 277 276 276 275 275 275 275 275 275 276 277 274 274 274 273 273 274 274 274 274 274 274 273 271 269 270 271 271 274 274 274 274 275 275 276 276 275 276 277 277 276 275
296 296 294 293 292 292 292 292 291 290 290 290 290 290 291 291 288 287 286 285 285 284 283 283 282 281 281 280 279 279 279 279 279 278 278 279 279 279 278 278 277 279 279 276 275 275 275 275 275 275 275 274 275 275 275 274 275 274 274 275 275 274 274 273 273 273 273 273 270 270 271 270 269 272 274 274 275 275 275 275 275 274 275 275 275
294 293 293 293 292 292 292 291 291 290 290 290 290 289 288 288 287 286 285 284 283 283 283 282 281 281 280 279 279 279 278 278 278 278 278 278 278 280 278 277 278 278 277 275 275 275 275 275 275 275 275 274 274 274 275 275 275 275 276 276 275 274 272 271 272 272 272 271 270 270 270 271 270 270 273 275 276 275 275 274 274 274 275 275 275
Wind_Speed
3 4 4 3 8 11 12 14 15 15 15 16 16 16 18 18 19 21 22 21 20 20 20 20 20 20 20 20 20 20 20 20 20 20 20 20 20 20 20 20 20 20 20 20 20 20 20 20 20 20 20 21 21 21 21 21 21 21 20 20 20 20 20 19 19 19 19 19 19 20 19 19 19 18 18 18 19 18 18 16 16 10 9 10 17
4 5 3 3 7 11 13 15 15 15 15 16 17 18 18 20 21 21 21 20 20 20 20 20 20 20 20 20 20 20 20 20 20 20 20 20 20 20 20 20 20 19 19 19 19 20 20 20 19 20 20 20 21 20 20 21 20 20 20 20 20 20 20 20 20 20 19 19 20 19 19 20 20 19 17 17 18 17 16 15 16 10 5 15 15
5 4 2 2 9 11 13 15 16 15 14 15 17 19 19 21 20 20 20 20 20 20 20 20 20 20 20 20 20 20 20 20 20 20 20 20 20 20 20 20 19 19 19 19 19 20 20 20 20 20 20 20 20 20 20 20 19 19 19 19 19 20 21 20 20 20 20 20 19 19 18 19 20 19 18 17 17 16 15 15 14 14 7 15 14
2 0 2 5 10 11 13 15 16 16 15 15 17 17 20 20 20 20 20 20 20 20 20 20 20 19 19 19 19 20 20 20 20 20 20 20 20 19 19 19 19 19 19 20 19 20 20 20 20 20 20 20 20 19 19 19 19 19 19 19 19 20 21 21 21 21 21 20 20 17 8 8 11 18 18 17 16 16 14 15 14 14 14 13 14
3 3 5 5 4 10 13 16 16 16 16 16 17 19 20 20 20 19 20 20 19 19 19 19 19 19 19 20 19 19 19 19 19 19 19 19 19 19 19 20 20 20 20 20 20 20 20 20 20 20 19 20 19 19 19 19 18 18 18 19 18 20 21 21 21 21 21 21 19 13 7 8 8 16 19 18 16 15 15 16 14 13 12 13 13
5 5 5 5 4 7 14 17 17 17 18 18 18 20 20 20 19 19 20 19 19 19 19 19 19 20 20 20 19 19 19 18 19 19 19 19 19 19 19 19 19 19 19 19 19 19 19 19 19 19 20 20 19 18 18 19 18 18 18 18 18 19 20 21 22 22 21 19 17 8 8 8 8 9 20 19 16 15 16 17 15 14 13 14 14
6 5 5 5 6 7 14 17 17 18 17 18 19 19 19 19 19 19 19 19 19 19 19 20 20 20 19 19 18 18 18 18 19 19 19 20 20 19 19 20 19 19 19 19 19 19 19 19 19 19 19 19 19 18 18 19 19 18 18 18 18 18 19 21 22 22 21 12 7 7 7 8 7 6 18 19 17 16 17 17 16 15 14 14 15
6 5 5 6 5 9 14 17 18 18 18 18 17 18 18 18 18 18 19 19 19 19 19 20 20 19 19 18 18 18 19 19 19 19 19 19 19 19 19 19 19 19 19 19 19 19 19 19 19 20 19 19 18 18 18 18 18 18 18 18 18 18 18 19 21 20 21 9 8 7 8 7 8 7 15 19 18 17 16 18 16 15 15 15 13
7 6 6 6 7 13 14 16 18 18 18 18 18 18 17 18 18 19 19 19 19 19 19 20 19 19 18 18 18 19 19 19 19 19 19 19 19 19 19 19 19 19 19 19 19 19 19 19 19 19 19 19 18 18 18 18 18 18 18 18 18 19 18 19 20 18 10 8 9 7 8 8 8 8 13 19 18 17 15 15 14 17 15 16 13
7 6 7 6 7 13 14 15 17 17 18 17 17 17 17 18 18 19 19 19 19 19 20 19 19 19 18 18 18 18 19 19 19 19 19 19 18 18 18 18 18 19 19 19 19 19 19 19 19 20 19 19 18 18 18 18 18 18 18 18 18 19 19 19 18 12 7 8 9 8 9 14 7 8 13 17 18 16 16 16 14 14 13 16 15
8 7 6 7 10 15 16 17 17 18 17 17 17 17 18 18 18 18 18 19 19 19 19 19 18 18 18 18 18 18 19 19 19 19 19 18 18 18 18 18 18 19 19 19 19 20 19 19 19 19 19 19 18 18 18 18 18 18 18 18 19 19 18 19 14 6 7 8 8 8 10 17 8 8 16 18 16 17 15 14 17 16 16 16 15
9 7 7 7 11 15 15 16 18 17 17 17 17 18 18 18 18 18 18 18 19 19 18 18 18 17 17 17 18 18 19 19 19 19 19 19 19 19 19 19 19 19 20 20 19 20 19 19 19 19 19 19 19 18 18 18 18 18 19 19 19 19 18 19 9 7 6 7 7 8 8 9 9 11 22 17 15 16 16 14 16 18 16 15 15
9 8 8 7 8 15 15 16 17 17 17 17 17 17 18 18 18 18 18 18 18 18 17 17 17 16 16 16 17 18 18 18 19 19 19 19 19 19 19 19 19 19 20 19 19 20 19 19 19 19 19 19 19 19 19 19 19 19 19 20 19 19 18 18 7 8 7 7 6 8 8 8 8 16 18 17 16 16 15 14 16 18 17 16 16
10 8 7 7 9 14 14 14 16 17 17 16 17 18 18 18 18 18 18 17 17 17 16 16 16 16 16 17 17 17 18 18 19 19 18 19 19 19 19 18 19 19 20 19 19 19 19 19 19 19 19 19 19 20 20 20 20 20 20 20 19 19 18 11 10 6 8 8 7 8 8 7 9 17 18 17 16 16 15 14 14 17 18 15 14
11 9 7 8 8 8 14 15 15 17 17 17 17 18 18 18 17 17 17 16 16 16 16 16 16 16 16 16 17 17 18 18 18 18 18 18 18 18 18 18 19 20 20 19 19 19 19 19 19 19 19 19 20 20 20 20 20 20 19 19 19 18 19 7 7 6 7 7 6 8 8 8 15 20 18 17 16 16 15 13 13 15 18 17 16
9 9 8 8 8 8 6 13 17 16 16 17 17 18 18 17 17 16 16 15 15 15 16 16 16 15 16 16 17 18 18 18 17 17 17 17 18 18 18 18 19 20 20 19 19 19 19 19 19 20 20 20 20 21 21 20 20 20 20 19 19 19 18 11 6 6 6 7 7 7 8 8 20 19 18 17 17 16 15 13 13 14 17 16 13
9 8 10 9 8 7 7 7 10 15 16 17 17 17 17 16 15 15 14 14 14 14 15 14 14 15 15 16 17 18 18 17 17 17 17 17 17 17 18 18 19 20 20 19 19 19 19 19 20 20 20 21 21 22 21 21 20 20 19 19 19 19 17 14 6 6 6 7 7 7 8 7 16 19 18 17 16 15 15 14 14 15 16 17 16
9 9 9 8 8 6 6 6 8 8 8 10 14 17 16 16 15 15 14 14 14 14 14 13 13 14 15 15 17 17 17 17 16 16 16 16 16 16 18 19 19 20 20 19 19 19 18 19 19 20 21 21 21 21 21 20 20 19 19 19 18 18 16 14 5 6 6 7 6 6 7 13 19 18 18 16 16 14 14 14 15 15 16 15 14
8 9 7 7 6 6 6 5 6 7 7 7 5 10 15 15 15 15 14 14 14 14 13 12 12 13 14 14 15 16 15 16 15 15 15 15 15 16 18 19 19 19 19 19 18 18 18 19 19 20 20 21 21 20 20 20 20 19 19 18 18 17 16 9 6 6 6 6 6 7 8 18 18 18 17 16 14 14 14 14 15 15 15 14 13
7 7 7 6 5 5 5 5 6 7 6 6 6 6 10 14 14 13 13 13 13 13 12 11 11 11 12 13 14 10 11 10 15 10 14 14 15 14 18 18 19 19 19 18 18 18 18 19 19 20 21 21 20 19 19 19 20 20 19 18 17 15 8 6 6 6 6 7 8 7 13 19 18 18 17 16 15 14 15 16 16 16 14 13 13
5 5 6 4 5 5 4 5 6 7 7 6 6 6 7 10 9 11 12 12 12 11 11 10 8 8 9 10 10 8 6 6 7 6 11 8 14 16 16 17 17 18 18 18 18 18 18 19 19 20 20 20 19 18 18 18 18 19 19 18 17 8 7 7 7 6 6 6 7 7 18 18 18 18 16 16 15 14 15 15 14 13 14 13 13
5 4 3 4 5 4 4 5 6 6 6 6 4 4 5 7 6 5 5 7 8 8 6 4 5 4 8 7 6 6 6 5 6 7 6 7 9 16 15 16 16 17 17 17 17 17 18 19 19 19 19 18 19 9 9 13 17 18 17 17 9 7 7 7 7 7 7 7 7 10 19 18 18 17 17 16 15 15 15 14 12 10 12 14 14
5 4 4 3 4 4 3 5 5 5 7 5 4 4 5 5 5 5 5 6 5 4 4 4 4 4 5 6 6 6 5 5 6 8 7 11 10 14 14 14 15 16 16 15 16 16 17 17 18 18 17 17 9 7 7 7 7 15 13 8 6 7 7 7 7 6 7 7 7 15 19 18 18 17 16 16 15 15 15 14 14 13 14 16 16
4 4 4 3 3 4 3 4 4 4 6 5 4 4 4 4 5 5 5 4 4 3 3 4 4 5 5 5 6 4 5 5 8 12 9 6 7 10 12 12 12 13 16 9 12 13 15 14 15 16 11 6 6 7 7 6 7 6 7 7 7 7 7 7 6 7 7 8 7 19 19 18 18 17 16 16 15 15 15 14 15 15 15 16 15
3 4 4 3 3 3 3 4 2 3 5 5 4 4 4 5 4 4 4 3 3 3 3 4 4 4 5 5 4 4 5 6 6 6 6 5 5 6 6 6 6 6 10 7 6 7 7 8 7 8 6 6 7 7 7 8 8 7 7 7 7 7 7 7 7 7 7 8 9 19 19 18 17 17 16 16 16 16 17 18 17 17 18 19 19
2 4 4 2 2 2 2 3 3 3 4 4 5 3 4 6 4 2 5 3 3 3 3 4 5 5 4 4 5 6 6 6 6 6 6 6 6 6 6 6 6 6 6 6 6 7 7 6 6 7 7 6 6 6 6 6 7 8 7 8 8 8 8 7 7 7 7 7 9 19 19 18 17 18 17 16 16 17 17 17 17 17 17 17 18
4 4 2 2 1 2 2 3 4 4 4 3 4 3 4 4 4 1 5 2 2 4 4 4 5 4 4 4 6 6 6 6 6 6 6 5 6 5 5 5 6 7 6 6 7 6 6 6 7 7 7 7 7 6 6 6 6 7 7 7 8 8 7 7 7 7 7 7 9 18 18 18 17 18 18 17 17 17 17 17 17 17 18 18 18
5 3 3 3 2 2 2 4 3 4 3 3 4 4 3 4 2 2 3 2 3 3 3 3 4 4 3 5 6 6 6 6 5 6 4 5 6 5 5 6 6 6 5 5 6 6 6 7 7 7 8 7 8 8 7 7 6 5 7 7 7 7 7 7 7 7 7 7 7 13 18 19 19 19 20 19 19 19 19 19 19 19 18 19 19
6 4 3 3 2 3 3 4 4 4 3 2 4 3 3 4 3 3 3 2 3 3 3 3 4 3 4 5 5 6 6 6 5 4 4 6 5 5 6 6 6 6 5 6 6 6 7 6 7 7 7 7 7 8 7 7 6 6 6 7 7 7 7 7 7 7 7 7 7 11 19 20 20 21 21 21 21 21 21 21 21 21 21 21 20
5 4 3 3 2 2 4 4 4 4 3 3 3 3 2 4 2 2 1 2 3 3 3 4 3 5 5 5 6 6 6 5 5 4 6 5 5 5 6 5 5 5 6 7 6 6 6 6 7 7 7 7 6 6 6 7 7 6 6 7 7 7 6 6 7 6 6 6 7 8 18 21 22 22 23 23 23 23 22 22 21 21 21 21 21
4 4 3 3 1 3 3 3 3 2 3 4 2 2 1 3 1 1 1 3 3 3 4 3 5 5 5 6 5 5 5 5 5 5 5 5 5 5 6 5 6 6 5 5 5 6 5 5 5 6 6 6 6 6 6 8 7 7 7 7 6 6 6 6 5 6 6 6 6 7 10 19 21 23 23 23 23 23 22 22 22 21 21 21 22
5 4 3 2 1 2 3 2 2 2 3 3 1 2 2 3 1 2 2 2 3 5 4 5 5 6 5 6 5 5 4 5 5 4 4 5 5 5 5 6 6 6 5 5 6 5 5 5 4 4 4 4 5 6 6 6 7 7 7 7 6 6 6 5 5 6 6 6 6 6 7 10 18 21 23 22 22 22 22 22 22 22 21 21 21
1 3 4 3 4 3 4 2 2 2 4 4 3 2 2 2 2 2 2 2 4 4 6 5 6 5 5 5 6 5 4 5 5 4 4 5 5 5 6 6 5 5 5 5 5 5 5 5 6 5 5 5 6 7 7 6 7 7 5 6 6 6 5 4 5 5 6 5 6 6 6 8 8 16 20 20 21 22 22 22 21 21 21 21 21
4 1 3 4 3 2 2 3 2 3 3 3 2 3 2 2 1 1 2 4 4 6 4 5 6 6 5 5 5 5 4 4 4 4 4 5 5 6 6 6 5 5 5 6 6 5 5 6 7 7 8 7 8 7 8 9 9 7 5 6 5 5 5 5 5 5 5 5 5 6 7 7 7 7 9 17 20 19 20 20 19 19 19 19 20
4 3 5 5 4 3 3 3 2 3 3 2 3 2 1 1 2 3 3 4 4 5 5 6 6 6 5 5 5 5 4 4 3 4 5 5 6 6 6 5 5 5 5 5 5 5 5 6 6 7 7 7 6 7 8 8 9 10 7 6 6 6 5 4 4 5 6 5 5 5 6 6 7 7 7 6 10 16 18 18 18 18 19 19 20
6 5 3 3 4 3 3 4 2 4 3 2 2 2 2 2 2 3 3 3 5 5 5 6 6 5 5 5 4 4 4 4 4 4 6 6 6 6 5 5 5 5 5 5 5 6 6 6 6 6 7 7 7 9 8 9 9 10 8 6 4 4 5 4 4 5 5 5 5 5 5 7 7 7 8 6 6 9 20 20 20 20 20 20 19
4 5 5 4 4 3 4 5 5 4 3 3 4 4 2 3 3 3 4 4 5 5 5 5 5 5 5 6 4 5 4 4 4 4 6 5 5 5 5 5 5 5 5 5 5 6 6 7 6 6 5 6 7 9 9 8 9 9 8 7 4 3 2 4 4 5 4 5 4 5 5 6 6 9 6 7 7 6 13 20 20 20 19 19 18
4 5 5 7 7 5 5 4 4 3 3 3 3 3 2 3 4 4 4 6 5 5 5 5 5 5 5 5 4 5 4 4 5 5 6 5 5 5 5 6 5 4 4 5 6 5 6 6 7 6 6 6 6 8 9 9 8 8 8 6 5 3 1 2 5 5 5 5 5 5 5 4 5 6 6 6 6 7 7 12 18 19 20 19 19
4 4 4 3 4 4 3 3 4 3 2 3 3 3 2 4 4 5 6 5 6 6 5 6 5 5 5 4 5 5 5 5 5 5 5 5 5 5 5 5 4 4 5 5 6 7 7 7 7 7 5 5 4 6 7 8 7 8 7 6 4 4 1 1 4 6 5 4 4 4 3 5 5 6 7 6 6 6 7 7 6 6 9 19 19
4 4 4 4 4 2 2 2 3 3 3 3 2 2 3 3 5 4 6 6 5 6 5 5 5 6 5 5 5 5 4 5 5 5 5 5 5 5 4 4 4 5 6 8 8 7 8 9 8 6 7 5 4 6 7 8 6 8 7 6 4 2 0 3 3 6 3 3 4 4 5 5 5 6 7 7 6 7 7 7 6 7 6 12 19
3 4 5 4 4 5 5 5 4 3 4 4 2 2 1 1 3 4 6 4 5 4 5 5 6 5 5 5 5 5 5 5 5 5 6 5 5 4 4 4 4 5 6 6 5 6 6 5 6 5 6 6 5 7 8 7 5 7 7 7 6 3 2 4 2 5 5 4 4 5 4 5 5 7 6 5 5 6 6 6 6 6 6 6 9
2 3 5 6 5 4 5 5 3 3 4 4 3 2 1 1 3 4 5 4 4 5 5 5 5 5 6 5 5 5 5 6 5 5 5 5 5 4 4 5 5 5 5 4 4 5 6 6 6 6 4 5 5 6 8 6 5 8 6 6 6 5 2 5 4 8 5 3 4 4 5 4 5 7 6 6 5 7 6 6 6 6 6 5 6
5 5 4 4 4 4 4 4 4 4 3 3 3 1 1 2 2 3 5 5 3 4 6 4 5 7 6 5 5 5 5 6 5 4 5 5 4 3 4 5 5 5 6 7 6 7 7 7 7 5 6 4 3 4 8 7 5 8 4 1 2 6 2 6 4 8 4 3 5 4 4 4 6 8 6 6 6 7 6 6 6 6 6 6 6
4 3 3 5 4 4 4 3 4 3 3 2 2 4 6 5 7 6 5 5 6 5 6 5 5 7 7 5 5 4 5 5 4 4 5 4 3 4 4 5 5 5 5 5 6 7 7 7 6 6 3 5 6 5 5 6 5 7 6 2 3 1 4 2 8 10 2 4 4 4 3 4 6 9 6 6 6 6 7 6 6 6 6 6 6
5 5 5 5 5 6 6 5 4 4 3 3 5 5 6 6 6 7 7 8 5 5 5 5 4 4 4 6 5 4 5 4 4 5 4 4 3 4 5 4 5 5 4 6 6 6 5 4 5 4 5 3 5 3 3 5 6 6 2 4 4 3 1 6 8 8 2 7 4 3 4 4 7 8 6 5 5 5 6 6 6 5 5 5 5
5 6 5 5 4 5 3 3 3 3 4 4 5 5 5 7 5 5 4 5 5 3 3 3 2 4 4 2 5 5 3 4 5 5 3 3 4 5 4 4 4 5 5 5 4 4 5 5 5 3 4 4 2 4 4 6 3 5 5 2 1 2 5 6 4 7 4 7 3 3 4 2 7 9 6 4 6 7 6 6 6 6 5 5 5
5 3 3 4 3 2 3 3 4 3 3 4 4 5 4 4 4 3 4 5 6 1 1 2 6 4 4 5 4 3 3 5 5 4 3 3 4 4 4 4 4 4 5 5 5 5 4 3 3 4 4 4 3 4 5 5 5 2 4 3 2 2 2 2 3 7 8 1 2 5 5 4 8 7 5 4 6 7 7 6 6 6 5 5 5
5 5 4 3 4 4 4 4 3 3 3 4 4 3 6 4 5 5 4 4 5 5 4 5 4 3 5 4 3 3 4 5 4 4 4 4 3 4 4 4 5 5 5 5 4 4 4 4 3 3 3 3 3 4 3 4 4 5 4 4 3 2 1 2 2 3 5 10 12 5 3 8 9 6 1 6 6 8 8 7 6 6 5 5 5
5 6 6 5 3 3 3 3 4 4 3 4 4 3 4 5 6 6 7 4 6 6 5 4 4 3 5 3 3 3 5 4 4 3 4 4 4 3 4 5 5 4 4 5 4 3 3 3 4 4 4 5 4 3 2 4 3 3 4 3 3 2 1 1 2 3 3 6 9 8 13 14 13 1 4 5 6 7 7 6 6 5 5 5 5
4 4 4 4 3 3 4 5 4 3 3 4 5 5 5 6 7 6 9 6 6 5 4 5 3 3 4 3 3 4 4 4 3 3 3 3 3 4 4 5 5 4 4 3 3 3 3 3 3 3 3 4 3 3 2 3 3 3 2 3 4 5 2 2 2 6 5 3 7 11 11 13 12 12 9 7 10 9 7 6 6 5 5 5 5
3 4 5 5 4 4 5 6 3 3 4 5 6 6 5 5 7 7 8 8 5 6 6 4 3 3 4 3 3 3 3 3 3 3 3 3 4 4 5 4 4 4 4 4 3 3 3 3 3 3 3 3 4 3 3 3 2 3 2 3 4 4 3 3 5 6 6 6 9 9 9 8 10 14 9 9 10 8 6 5 5 5 5 5 5
Wind_Direction
6 23 338 5 106 107 100 92 89 87 84 84 83 81 78 77 78 77 74 74 74 74 72 72 70 68 66 64 62 59 57 55 53 52 50 49 47 45 43 41 39 37 35 33 31 30 28 27 26 25 25 24 23 23 22 23 21 22 24 25 24 23 22 22 21 21 20 19 16 13 8 5 2 360 358 359 7 13 11 3 3 358 349 333 356
322 327 341 336 101 103 97 93 88 84 85 84 83 83 82 78 76 75 75 75 74 73 73 71 70 68 66 64 62 60 58 56 54 52 50 48 46 44 42 40 38 36 35 33 30 29 28 25 25 24 24 23 22 22 21 23 21 22 23 24 23 22 22 21 21 20 20 17 17 13 8 4 0 358 357 357 3 9 6 1 359 357 330 346 353
289 293 329 359 114 101 96 92 88 87 84 84 82 79 79 80 78 76 76 76 75 74 73 72 70 68 67 65 63 61 59 56 54 51 49 47 45 43 40 38 37 35 34 32 30 29 27 26 24 24 24 22 21 22 21 22 21 23 23 23 23 22 21 21 19 19 18 15 14 11 5 0 356 353 355 356 356 7 359 358 356 351 335 347 350
225 287 77 100 100 103 99 90 90 87 84 81 82 82 79 79 79 77 78 78 76 75 75 74 72 71 68 66 63 60 58 56 53 51 48 46 44 42 40 38 36 34 32 31 30 29 28 26 23 23 23 22 21 21 20 23 20 22 22 22 23 23 21 20 19 16 16 12 9 10 359 351 347 345 351 353 351 2 355 356 354 348 346 347 347
79 86 100 101 101 99 97 96 91 89 87 86 82 80 80 79 79 81 81 79 79 78 77 75 73 70 67 65 62 60 58 55 54 51 49 46 44 41 39 37 34 33 31 30 29 28 27 25 23 22 22 22 22 20 20 22 21 21 22 23 24 24 23 20 19 15 14 11 7 6 354 347 342 340 345 349 348 358 354 356 349 347 345 347 346
108 96 90 92 88 93 99 97 95 92 88 86 86 82 80 81 83 83 82 82 80 78 76 73 71 68 66 64 62 60 58 56 54 51 48 46 42 39 37 35 33 31 30 28 27 26 26 25 24 23 22 22 22 21 20 21 21 21 21 23 24 24 24 22 19 16 13 10 5 360 353 346 341 337 336 343 345 354 354 354 348 345 345 347 345
105 94 91 89 86 95 92 92 94 93 89 85 82 82 83 84 84 84 82 81 79 76 73 72 69 68 66 64 62 60 57 54 51 49 47 44 41 39 36 35 32 30 28 27 26 25 25 25 24 23 22 23 22 21 20 20 20 21 21 21 22 21 21 20 17 15 12 11 360 355 347 342 342 340 331 339 348 349 354 353 347 344 343 345 347
100 96 89 93 106 99 94 90 89 91 88 86 86 87 87 87 86 83 81 79 76 74 72 71 69 68 65 63 60 58 55 52 49 47 44 41 39 37 35 33 31 29 27 27 25 23 24 23 23 22 21 21 22 21 20 21 20 19 20 19 18 17 15 18 15 13 10 7 360 351 343 336 344 341 327 338 346 347 356 350 345 342 343 344 340
96 90 92 89 91 90 86 92 94 93 92 93 92 91 89 86 83 81 79 77 75 74 72 71 69 68 65 63 59 55 51 49 46 44 41 39 37 35 34 31 30 28 26 25 25 23 21 21 21 22 20 20 21 20 20 20 20 19 18 17 15 13 12 15 15 14 10 1 353 346 339 337 346 333 321 333 344 343 347 348 341 339 340 339 332
101 98 94 95 99 94 95 96 98 98 97 94 93 91 87 84 82 80 79 77 76 74 72 71 69 67 64 61 57 54 51 47 44 41 38 36 34 33 32 30 28 28 25 25 24 22 20 19 19 19 19 18 19 19 18 18 19 18 17 16 15 12 13 15 18 11 6 355 348 344 338 344 342 329 314 333 341 342 346 344 340 339 337 335 328
88 90 89 91 92 92 92 94 94 93 93 94 92 88 86 84 82 81 79 77 76 75 73 71 69 66 62 59 56 53 50 47 44 40 37 35 33 31 30 29 27 26 24 23 22 21 18 19 19 19 18 18 18 18 17 16 16 16 15 15 14 12 15 15 20 4 359 352 342 341 337 340 335 319 313 323 341 339 339 341 338 338 339 337 343
74 68 72 80 87 89 92 97 95 93 93 91 89 88 86 84 83 81 79 78 76 75 73 71 68 65 61 58 55 52 49 46 43 39 37 34 32 30 29 27 26 25 22 21 21 19 18 18 19 19 18 19 18 18 17 16 14 14 13 11 10 12 14 15 21 4 353 346 341 338 334 333 327 313 320 332 340 337 334 338 335 343 341 347 344
74 66 67 74 78 81 85 92 92 91 91 90 89 88 86 85 83 81 80 78 76 74 73 70 67 64 60 57 54 52 50 47 43 39 35 33 30 28 27 26 26 24 21 19 20 19 18 18 18 18 18 19 19 18 16 15 13 12 11 9 8 9 11 16 15 5 354 343 340 336 330 325 318 311 325 338 337 337 334 338 336 342 341 344 346
76 65 58 66 78 78 83 87 90 91 91 90 90 88 85 84 83 82 80 78 76 74 72 70 67 63 60 57 56 54 50 47 43 39 35 32 29 27 25 26 26 23 19 19 19 18 18 18 17 18 18 18 18 16 14 13 11 10 9 8 6 7 9 23 11 1 353 345 337 333 332 320 306 320 337 336 339 336 331 336 339 338 347 341 339
87 71 65 63 63 64 73 80 86 89 89 89 88 86 84 83 82 81 80 78 77 75 72 69 65 62 60 58 56 53 51 47 42 38 35 32 29 26 25 25 25 21 19 19 19 17 17 17 18 17 17 18 16 15 12 11 9 8 7 6 5 6 7 24 7 358 350 342 337 332 325 321 313 326 337 338 337 334 331 334 340 337 338 340 340
76 82 72 63 63 59 49 72 80 82 84 84 85 84 83 82 82 80 78 77 76 73 70 67 63 60 57 56 55 53 49 46 42 38 36 33 30 25 24 25 23 20 20 19 17 16 17 18 18 17 18 17 15 13 10 9 8 7 7 6 7 8 8 18 1 354 348 337 337 333 326 312 317 328 343 338 336 337 330 334 335 339 336 332 333
71 67 73 63 62 61 56 61 66 74 80 82 81 80 80 80 78 78 75 74 72 70 68 65 63 60 58 56 55 53 49 46 43 40 37 34 30 26 24 24 22 20 19 18 16 16 17 18 18 17 17 16 14 12 10 9 8 7 7 7 8 9 7 12 360 352 341 342 344 327 316 315 308 343 339 339 339 338 335 334 335 340 337 335 337
59 66 63 65 64 60 63 62 68 66 60 64 76 79 80 80 80 79 76 73 70 68 65 63 62 62 60 58 56 52 50 47 44 41 37 33 32 30 27 23 22 20 18 17 15 15 17 18 17 17 18 16 14 11 10 8 7 7 8 8 8 7 6 8 354 343 340 344 330 327 322 306 336 341 341 338 336 337 334 337 336 336 337 331 335
61 66 68 66 63 68 61 64 75 74 70 68 62 76 80 79 80 77 75 72 70 67 63 62 62 63 61 59 55 52 47 45 42 38 36 32 34 33 30 24 22 20 18 16 15 16 17 17 17 17 17 16 13 11 9 7 6 6 6 6 6 5 3 4 353 338 341 342 335 329 311 322 345 340 337 336 329 334 333 332 335 339 334 330 332
58 73 74 75 68 76 71 73 77 78 77 72 69 66 73 77 77 74 72 71 71 67 64 60 58 57 58 59 58 51 44 36 39 34 33 31 35 36 31 26 22 20 18 17 16 17 16 16 17 17 17 16 12 10 8 6 4 4 4 3 4 3 360 355 349 343 342 343 340 331 314 338 341 341 340 332 335 343 337 339 344 339 332 327 334
57 64 76 81 78 81 76 83 78 81 79 77 73 71 69 67 61 67 67 68 69 67 63 59 55 54 58 55 55 51 43 37 30 33 34 29 34 34 31 27 23 21 19 18 18 17 16 16 16 16 15 15 11 8 5 4 2 1 1 1 1 0 354 350 348 343 347 341 334 321 328 342 342 341 341 337 341 338 339 341 338 345 333 336 338
108 103 79 91 90 72 89 89 81 76 82 77 75 73 70 71 69 64 65 60 61 60 59 59 61 56 57 57 54 52 43 34 34 36 33 31 28 32 29 26 24 21 20 18 19 18 17 15 14 15 14 13 10 6 359 357 358 359 359 359 358 351 350 348 347 344 343 336 337 320 338 343 343 343 342 342 342 339 339 334 330 338 330 334 332
108 99 82 80 91 92 80 84 84 89 86 78 77 79 75 77 70 67 62 62 62 63 58 65 65 67 63 61 58 54 47 37 35 40 38 33 28 30 26 24 22 20 18 17 18 16 17 14 12 13 13 12 9 1 354 351 349 354 355 355 352 349 345 346 346 344 339 333 336 328 343 345 344 345 342 346 339 337 336 333 326 329 341 347 338
118 118 115 69 83 100 85 86 95 94 91 91 81 77 75 77 72 69 69 71 63 64 62 66 65 63 66 65 60 57 50 41 34 34 34 28 24 23 21 18 17 17 16 14 12 9 13 9 9 12 9 4 3 359 352 347 352 350 350 352 350 348 347 345 343 341 340 336 330 336 347 348 347 346 346 348 343 342 340 331 329 331 330 328 326
109 102 84 93 77 89 92 67 63 84 96 93 92 91 91 81 69 69 73 70 75 60 61 62 60 65 65 70 66 59 49 43 37 32 30 24 27 22 15 14 7 13 14 11 9 2 7 3 1 6 3 359 360 358 353 351 349 352 352 349 348 346 348 347 346 343 341 338 331 343 350 352 352 353 355 353 350 348 347 344 341 336 339 340 337
115 103 115 99 69 58 92 98 70 67 91 109 116 113 102 94 88 89 84 59 79 69 58 58 55 55 65 72 67 55 45 43 35 31 30 22 27 18 16 9 13 12 12 13 9 6 4 2 1 359 355 357 360 355 352 353 344 346 349 351 350 350 348 346 345 343 340 338 333 346 354 358 360 2 0 356 356 354 351 347 344 341 336 334 331
133 125 121 109 88 91 98 103 94 87 82 99 86 94 96 110 119 114 104 78 77 79 63 60 60 58 59 59 65 54 50 44 36 30 31 20 29 18 14 14 17 14 8 15 10 6 2 2 0 357 351 354 354 353 351 352 352 346 348 350 350 347 346 344 344 345 341 342 339 348 358 4 6 7 6 3 359 355 352 348 345 342 339 335 332
116 139 122 119 125 125 120 103 110 104 107 92 103 97 103 101 104 77 84 130 98 87 77 72 67 57 58 64 73 64 58 49 39 35 19 33 26 16 15 21 18 16 4 18 9 5 6 4 359 354 355 355 351 350 350 351 351 352 348 350 348 348 345 345 346 347 348 347 348 348 7 13 14 13 10 6 1 357 353 349 344 338 336 332 330
129 140 127 116 138 145 119 111 117 115 118 115 101 98 91 80 77 93 99 120 104 105 96 74 68 67 54 59 61 61 55 56 49 32 33 38 23 20 20 22 19 11 6 13 18 6 5 2 358 354 354 351 349 346 347 345 348 354 353 348 349 348 345 348 352 352 355 355 356 357 14 19 20 16 12 8 3 359 355 351 346 340 335 332 330
146 138 126 139 138 123 136 140 142 140 134 100 111 108 119 98 89 102 130 99 107 110 85 74 65 69 56 57 61 71 62 65 57 38 47 33 27 23 28 19 20 9 14 16 7 11 3 358 358 354 347 347 347 343 345 340 348 353 356 351 348 346 341 348 352 355 354 2 3 4 14 21 20 17 12 7 3 359 356 351 347 343 339 335 331
133 133 140 169 176 124 138 131 143 130 114 116 127 132 106 115 115 102 77 104 110 89 79 81 63 63 65 61 58 61 68 59 60 49 46 41 32 28 24 13 23 14 13 13 5 12 1 1 349 347 343 344 345 341 348 346 343 351 355 350 346 340 341 347 352 357 4 5 8 12 12 19 18 16 11 7 2 358 355 351 348 344 340 336 333
145 155 165 167 124 144 141 148 146 132 120 131 131 140 145 130 129 92 90 103 106 92 81 73 68 65 62 63 58 55 65 60 58 51 52 42 37 34 23 24 16 7 10 10 7 7 359 345 347 344 327 342 341 348 352 345 342 346 347 349 344 342 341 343 355 0 5 10 13 15 14 18 16 15 12 9 5 0 356 353 348 344 340 337 332
165 162 158 140 162 158 138 158 139 137 139 160 167 158 145 126 111 100 91 99 91 90 86 77 74 67 65 64 62 61 55 66 57 54 50 50 41 35 28 24 11 4 3 6 7 3 358 355 353 350 347 359 359 355 349 345 341 345 348 342 346 338 338 346 356 7 10 10 15 16 20 16 14 15 12 10 8 2 358 353 349 343 337 331 326
158 140 123 162 167 142 132 134 141 155 165 150 133 137 146 142 101 72 78 87 87 96 92 79 77 70 71 64 66 62 61 54 66 55 52 51 44 39 29 17 4 3 2 6 6 3 5 1 359 358 5 5 3 354 352 347 341 338 352 347 348 336 335 348 3 10 12 16 12 22 19 16 15 13 12 8 6 359 355 350 345 341 336 331 327
122 141 170 173 152 155 141 137 156 163 143 153 147 136 136 133 101 68 63 87 90 95 90 82 76 76 76 68 65 66 58 57 52 68 54 50 44 35 27 11 1 5 13 1 3 3 9 9 3 10 359 2 1 356 352 343 338 335 346 345 349 332 351 353 6 18 17 10 17 20 20 17 16 12 11 356 356 352 349 347 343 342 341 338 335
161 170 163 138 150 164 141 141 160 153 167 145 104 83 98 106 93 96 81 80 91 87 81 81 84 78 77 72 63 66 59 52 52 57 62 48 44 37 22 7 10 11 6 0 10 13 4 10 15 12 4 2 359 358 355 345 336 327 335 338 340 338 353 357 17 24 14 12 19 16 21 19 13 10 4 349 347 344 350 350 349 349 347 344 340
159 150 158 145 149 173 164 152 165 164 160 103 85 78 76 79 80 86 84 77 81 85 77 80 79 78 76 73 65 66 57 53 51 52 63 48 40 39 20 15 8 7 4 8 17 14 13 8 8 14 17 358 4 357 348 339 331 322 326 332 342 332 1 15 17 37 11 20 11 15 19 13 11 7 356 354 346 344 346 350 353 353 351 349 344
164 163 162 162 171 180 184 173 170 169 153 119 111 112 108 101 81 71 68 69 69 73 73 76 76 79 75 74 67 64 58 52 49 50 57 50 45 39 21 13 7 5 13 19 21 14 19 17 5 8 13 8 10 359 344 335 326 320 325 328 333 337 296 347 38 30 30 12 5 17 5 5 359 359 356 348 348 346 342 346 351 353 351 353 354
155 158 154 150 144 177 182 165 158 169 138 110 118 94 80 83 74 72 69 68 67 62 67 74 73 74 71 71 63 58 56 49 47 42 56 45 40 31 27 7 5 9 23 21 23 18 13 14 16 360 10 5 13 360 341 327 319 315 316 320 335 335 287 331 43 34 26 10 359 6 338 359 359 357 357 349 346 346 342 340 336 340 341 351 357
154 149 148 138 148 150 164 154 175 164 112 106 105 77 59 62 94 80 67 60 65 74 58 72 70 70 67 65 60 56 51 54 46 41 44 46 39 28 22 7 11 22 26 27 20 16 11 4 7 3 356 359 8 1 346 338 317 320 324 331 341 335 285 325 44 48 19 353 349 354 352 2 355 354 356 350 344 344 341 338 341 338 339 345 351
138 154 151 159 175 176 160 185 198 165 145 136 122 137 134 90 63 70 95 80 95 87 73 68 69 68 65 61 57 53 50 52 47 42 42 40 37 24 23 19 18 33 36 35 16 14 16 10 356 355 4 359 358 3 353 333 331 339 332 332 327 325 267 311 10 47 20 342 346 355 347 356 350 351 346 337 337 339 338 337 336 336 337 337 342
175 153 166 181 188 184 179 192 168 169 173 169 164 144 171 159 146 146 117 98 104 103 94 74 78 68 59 56 54 52 53 49 45 45 47 43 32 23 24 25 25 29 41 32 29 22 16 18 10 2 5 1 354 356 350 351 2 346 329 332 329 330 288 316 351 353 358 337 342 357 337 347 345 345 342 341 336 340 338 335 335 336 333 335 339
163 177 177 162 186 189 204 189 185 178 182 165 142 147 113 52 93 131 121 93 54 80 97 94 87 77 61 53 51 50 53 51 40 46 50 36 28 26 29 29 32 27 28 24 18 20 18 15 13 10 346 349 346 351 6 23 343 317 269 273 353 3 319 348 323 334 355 333 346 348 335 339 344 347 340 336 337 340 335 334 334 334 331 333 335
143 152 159 185 189 202 205 191 200 187 169 182 113 84 93 89 76 94 82 104 122 103 88 83 77 72 57 49 47 49 51 52 40 50 51 36 26 32 33 36 34 35 37 26 18 20 12 9 8 3 349 356 3 344 10 358 358 343 12 20 265 51 334 21 341 315 342 328 333 327 319 341 347 342 338 335 328 331 329 329 332 329 329 328 330
173 181 181 188 187 200 200 194 184 186 177 156 125 123 102 76 88 85 90 89 79 84 83 60 69 81 74 45 34 42 48 51 44 44 47 36 25 37 38 34 39 36 36 35 27 13 6 3 4 357 11 24 355 343 335 4 6 15 360 355 350 19 118 298 320 283 334 338 322 320 327 359 349 336 328 315 314 323 325 328 325 326 325 323 326
184 197 187 192 185 205 190 164 148 156 162 151 145 136 125 129 122 119 96 87 102 86 109 142 92 66 80 72 50 40 41 55 46 39 30 42 36 34 33 34 36 30 37 35 24 14 12 2 4 358 358 6 16 350 350 348 4 11 8 35 152 211 314 309 330 316 331 288 259 282 328 4 350 327 321 317 332 335 334 329 327 328 325 324 324
199 160 172 198 202 194 189 175 166 161 145 140 150 125 108 118 124 138 142 151 132 92 88 83 112 105 96 74 62 44 42 54 45 35 18 40 45 33 33 34 29 38 34 28 25 20 3 351 358 8 357 1 3 25 6 341 327 12 2 355 5 355 290 313 348 304 324 294 285 333 327 349 337 317 311 331 330 332 330 327 327 323 323 325 326
165 153 180 181 183 184 174 160 139 123 123 137 126 133 131 125 105 90 81 90 111 127 122 113 108 114 86 74 70 54 48 49 44 30 27 24 48 35 34 31 31 26 34 19 20 7 4 356 7 4 1 12 5 28 2 345 19 328 342 355 340 342 281 307 12 2 287 313 315 307 255 328 332 310 257 335 329 333 324 323 323 319 323 327 327
153 169 185 177 164 153 147 118 105 111 110 116 110 75 110 119 117 114 90 84 106 109 113 104 107 101 90 71 69 54 51 42 38 32 30 29 37 41 34 37 31 19 33 11 9 8 11 2 2 3 9 1 7 13 17 349 356 338 336 340 325 332 320 344 52 347 335 306 291 320 326 332 332 195 346 328 321 323 317 310 311 318 318 329 326
159 143 120 115 131 145 135 114 97 94 100 88 91 82 98 113 107 110 114 112 106 99 100 104 99 95 93 79 67 58 44 40 30 31 28 28 35 37 38 38 27 16 27 358 355 3 2 7 5 353 6 9 355 345 27 341 340 317 321 298 354 353 350 344 4 343 324 288 302 315 326 334 334 314 332 330 331 325 315 309 313 310 317 321 324
134 127 135 146 149 148 129 100 89 89 85 88 92 90 85 96 115 122 125 129 129 126 115 101 107 88 96 77 70 65 52 45 27 26 30 24 35 36 40 30 31 25 12 351 348 353 356 4 356 357 4 359 343 347 356 344 331 316 322 3 15 10 4 338 333 340 333 320 316 300 313 318 308 306 314 330 319 310 296 301 303 305 314 322 318